EW7351 Weather Reports


time (UTC)temp
C
wind
direction
speed
KPH
gust
KPH
rain 1hr
cm
rain 24hr
cm
rain mn
cm
humidity
%
barometer
mb
20260510154506 25 110 8.0 22.5 0.00 0.00 0.00 65 1012.4
20260510154003 24 129 9.7 22.5 0.00 0.00 0.00 64 1012.4
20260510153502 23 159 9.7 20.9 0.00 0.00 0.00 64 1012.3
20260510153000 23 237 9.7 20.9 0.00 0.00 0.00 64 1012.4
20260510152500 23 255 9.7 22.5 0.00 0.00 0.00 64 1012.6
20260510151959 23 136 9.7 22.5 0.00 0.00 0.00 67 1012.5
20260510151459 23 141 11.3 20.9 0.00 0.00 0.00 66 1012.4
20260510150957 22 229 9.7 22.5 0.00 0.00 0.00 67 1012.4
20260510150456 22 214 9.7 24.1 0.00 0.00 0.00 69 1012.4
20260510145935 22 238 9.7 24.1 0.00 0.00 0.00 70 1012.3
20260510145434 22 245 11.3 22.5 0.00 0.00 0.00 72 1012.2
20260510144911 21 173 11.3 22.5 0.00 0.00 0.00 73 1012.1
20260510144414 21 265 8.0 19.3 0.00 0.00 0.00 73 1012.2
20260510143851 21 193 8.0 17.7 0.00 0.00 0.00 75 1012.6
20260510143329 21 147 8.0 17.7 0.00 0.00 0.00 76 1012.7
20260510142824 20 165 8.0 16.1 0.00 0.00 0.00 76 1012.6
20260510142310 20 229 8.0 16.1 0.00 0.00 0.00 79 1012.6
20260510142007 20 216 6.4 16.1 0.00 0.00 0.00 80 1012.8
20260510141232 19 251 6.4 16.1 0.00 0.00 0.00 83 1013.1
20260510140703 19 186 6.4 16.1 0.00 0.00 0.00 82 1013.4
20260510140410 18 132 4.8 14.5 0.00 0.00 0.00 83 1013.5
20260510135847 18 158 3.2 12.9 0.00 0.00 0.00 85 1013.7
20260510135127 18 155 3.2 8.0 0.00 0.00 0.00 87 1013.7
20260510134629 18 154 3.2 6.4 0.00 0.00 0.00 88 1013.9
20260510134107 18 136 1.6 8.0 0.00 0.00 0.00 89 1013.9
20260510133541 18 247 1.6 8.0 0.00 0.00 0.00 89 1013.8
20260510133238 18 153 3.2 9.7 0.00 0.00 0.00 90 1013.8
20260510132518 18 191 3.2 9.7 0.00 0.00 0.00 90 1013.6
20260510131952 18 127 3.2 9.7 0.00 0.00 0.00 90 1013.6
20260510131432 18 154 3.2 9.7 0.00 0.00 0.00 90 1013.5
20260510130928 18 130 3.2 9.7 0.00 0.00 0.00 91 1013.4
20260510130429 17 105 3.2 9.7 0.00 0.00 0.00 91 1013.4
20260510125859 17 111 3.2 8.0 0.00 0.00 0.00 91 1013.3
20260510125359 17 113 1.6 9.7 0.00 0.00 0.00 91 1013.4
20260510124858 17 151 1.6 9.7 0.00 0.00 0.00 91 1013.4
20260510124357 17 123 1.6 8.0 0.00 0.00 0.00 91 1013.4
20260510123900 17 161 1.6 8.0 0.00 0.00 0.00 91 1013.2
20260510123333 17 108 1.6 6.4 0.00 0.00 0.00 91 1013.2
20260510122810 17 129 1.6 8.0 0.00 0.00 0.00 91 1013.0
20260510122506 17 143 1.6 8.0 0.00 0.00 0.00 91 1013.0
20260510121746 17 124 0.0 4.8 0.00 0.00 0.00 91 1013.0
20260510121217 17 126 0.0 4.8 0.00 0.00 0.00 91 1013.0
20260510121205 17 128 0.0 3.2 0.00 0.00 0.00 91 1012.9
20260510120148 17 128 0.0 3.2 0.00 0.00 0.00 91 1012.9
20260510115643 17 128 0.0 3.2 0.00 0.00 0.00 91 1012.9
20260510115141 17 128 0.0 3.2 0.00 0.00 0.00 91 1012.9
20260510114615 17 128 0.0 0.0 0.00 0.00 0.00 90 1012.9
20260510114048 17 128 0.0 0.0 0.00 0.00 0.00 90 1013.0
20260510113523 17 128 0.0 1.6 0.00 0.00 0.00 90 1012.9
20260510113015 17 128 0.0 1.6 0.00 0.00 0.00 90 1012.8
20260510112738 17 128 0.0 0.0 0.00 0.00 0.00 90 1012.7
20260510112003 17 128 0.0 1.6 0.00 0.00 0.00 90 1012.7
20260510111438 17 128 0.0 1.6 0.00 0.00 0.00 90 1012.5
20260510110938 17 128 0.0 3.2 0.00 0.00 0.00 90 1012.6
20260510110414 17 128 1.6 6.4 0.00 0.00 0.00 90 1012.6
20260510105913 17 127 1.6 6.4 0.00 0.00 0.00 90 1012.5
20260510105635 17 134 3.2 8.0 0.00 0.00 0.00 90 1012.4
20260510104912 17 91 3.2 8.0 0.00 0.00 0.00 90 1012.2
20260510104356 17 108 1.6 6.4 0.00 0.00 0.00 90 1012.2
20260510103857 17 135 0.0 4.8 0.00 0.00 0.00 90 1012.3
20260510103620 17 310 0.0 4.8 0.00 0.00 0.00 89 1012.1
20260510102831 17 60 0.0 3.2 0.00 0.00 0.00 89 1012.3
20260510102308 17 27 1.6 11.3 0.00 0.00 0.00 89 1012.2
20260510101742 17 70 1.6 11.3 0.00 0.00 0.00 88 1012.2
20260510101439 17 109 3.2 14.5 0.00 0.00 0.00 88 1012.1
20260510100710 17 61 4.8 20.9 0.00 0.00 0.00 87 1011.7
20260510100144 18 56 6.4 20.9 0.00 0.00 0.00 86 1011.6
20260510095637 18 146 8.0 20.9 0.00 0.00 0.00 85 1011.6
20260510095133 18 23 8.0 24.1 0.00 0.00 0.00 83 1012.8
20260510094632 19 4 9.7 24.1 0.00 0.00 0.00 80 1014.1
20260510094127 20 319 9.7 25.7 0.00 0.00 0.00 77 1013.9
20260510093627 20 74 8.0 25.7 0.00 0.00 0.00 74 1013.2
20260510093537 21 91 8.0 24.1 0.00 0.00 0.00 71 1012.7
20260510092533 21 349 9.7 29.0 0.00 0.00 0.00 71 1012.7
20260510092005 21 15 11.3 29.0 0.00 0.00 0.00 72 1012.3
20260510091505 22 140 9.7 38.6 0.00 0.00 0.00 73 1012.1
20260510090939 22 12 4.8 22.5 0.00 0.00 0.00 85 1011.9
20260510090412 23 46 3.2 16.1 0.00 0.00 0.00 85 1011.6
20260510085843 23 79 1.6 6.4 0.00 0.00 0.00 63 1011.5
20260510085340 23 6 1.6 6.4 0.00 0.00 0.00 63 1011.3
20260510085013 23 74 0.0 3.2 0.00 0.00 0.00 63 1010.4
20260510084857 23 54 0.0 3.2 0.00 0.00 0.00 63 1010.8
20260510083811 23 37 0.0 4.8 0.00 0.00 0.00 63 1010.6
20260510083241 23 41 1.6 4.8 0.00 0.00 0.00 62 1010.7
20260510082739 23 37 1.6 6.4 0.00 0.00 0.00 62 1010.7
20260510082211 23 359 1.6 6.4 0.00 0.00 0.00 62 1010.8
20260510081930 23 31 1.6 4.8 0.00 0.00 0.00 61 1010.5
20260510081141 23 153 1.6 3.2 0.00 0.00 0.00 60 1010.3
20260510080640 23 164 0.0 3.2 0.00 0.00 0.00 60 1010.0
20260510080115 23 164 0.0 0.0 0.00 0.00 0.00 60 1009.7
20260510075549 23 164 0.0 0.0 0.00 0.00 0.00 60 1009.6
20260510075019 23 164 0.0 4.8 0.00 0.00 0.00 60 1009.4
20260510074517 23 164 0.0 4.8 0.00 0.00 0.00 60 1009.3
20260510073952 23 164 0.0 11.3 0.00 0.00 0.00 60 1009.1
20260510073425 23 164 1.6 11.3 0.00 0.00 0.00 60 1008.9
20260510072857 23 164 3.2 8.0 0.00 0.00 0.00 59 1008.7
20260510072359 23 160 1.6 8.0 0.00 0.00 0.00 58 1008.9
20260510071820 23 109 0.0 4.8 0.00 0.00 0.00 58 1009.0
20260510071317 24 71 0.0 9.7 0.00 0.00 0.00 58 1009.2
20260510070753 24 11 0.0 9.7 0.00 0.00 0.00 58 1009.7
20260510070228 24 4 1.6 9.7 0.00 0.00 0.00 58 1010.1
20260510065659 23 36 3.2 9.7 0.00 0.00 0.00 58 1010.2
20260510065158 23 20 1.6 8.0 0.00 0.00 0.00 57 1010.3
20260510064629 23 10 3.2 8.0 0.00 0.00 0.00 57 1010.3
20260510064126 23 0 1.6 8.0 0.00 0.00 0.00 57 1010.3
20260510063623 23 2 1.6 8.0 0.00 0.00 0.00 57 1010.2
20260510063121 23 1 3.2 8.0 0.00 0.00 0.00 57 1010.2
20260510062553 23 359 4.8 8.0 0.00 0.00 0.00 57 1010.3
20260510062050 23 13 1.6 6.4 0.00 0.00 0.00 57 1010.3
20260510061547 23 170 0.0 3.2 0.00 0.00 0.00 57 1009.9
20260510061044 23 170 0.0 8.0 0.00 0.00 0.00 57 1009.3
20260510060541 23 170 1.6 8.0 0.00 0.00 0.00 57 1008.8
20260510060307 23 172 3.2 12.9 0.00 0.00 0.00 57 1008.4
20260510055513 23 170 3.2 12.9 0.00 0.00 0.00 57 1008.4
20260510055011 23 160 3.2 12.9 0.00 0.00 0.00 57 1008.4
20260510054443 23 164 3.2 12.9 0.00 0.00 0.00 58 1008.4
20260510053941 23 164 3.2 14.5 0.00 0.00 0.00 58 1008.3
20260510053413 23 158 4.8 14.5 0.00 0.00 0.00 58 1008.1
20260510052911 23 151 4.8 17.7 0.00 0.00 0.00 58 1007.9
20260510052346 23 168 4.8 17.7 0.00 0.00 0.00 58 1008.1
20260510052255 23 160 3.2 8.0 0.00 0.00 0.00 58 1008.2
20260510051252 24 162 3.2 12.9 0.00 0.00 0.00 57 1008.3
20260510051009 24 163 3.2 12.9 0.00 0.00 0.00 57 1008.1
20260510050512 23 138 4.8 17.7 0.00 0.00 0.00 78 1008.0
20260510045736 23 143 6.4 17.7 0.00 0.00 0.00 77 1007.9
20260510045236 24 120 8.0 19.3 0.00 0.00 0.00 77 1007.9
20260510044736 24 142 6.4 19.3 0.00 0.00 0.00 77 1007.7
20260510044222 24 132 4.8 14.5 0.00 0.00 0.00 76 1007.7
20260510043724 24 146 4.8 12.9 0.00 0.00 0.00 75 1007.6
20260510043206 24 136 6.4 12.9 0.00 0.00 0.00 75 1007.5
20260510042928 24 141 4.8 12.9 0.00 0.00 0.00 73 1007.6
20260510042204 24 143 3.2 12.9 0.00 0.00 0.00 72 1007.7
20260510041922 24 139 3.2 9.7 0.00 0.00 0.00 70 1007.9
20260510041200 24 121 3.2 11.3 0.00 0.00 0.00 69 1008.0
20260510040703 24 143 1.6 11.3 0.00 0.00 0.00 68 1008.0
20260510040622 24 127 3.2 6.4 0.00 0.00 0.00 68 1008.0
20260510035640 24 110 1.6 8.0 0.00 0.00 0.00 68 1007.9
20260510035118 24 125 1.6 4.8 0.00 0.00 0.00 68 1007.9
20260510034617 24 156 1.6 8.0 0.00 0.00 0.00 68 1007.9
20260510034107 24 141 1.6 8.0 0.00 0.00 0.00 67 1007.8
20260510033539 24 138 1.6 4.8 0.00 0.00 0.00 68 1007.8
20260510033035 23 117 0.0 3.2 0.00 0.00 0.00 69 1007.8
20260510032534 24 148 0.0 1.6 0.00 0.00 0.00 68 1007.8
20260510032037 24 116 0.0 3.2 0.00 0.00 0.00 67 1007.9
20260510031728 24 131 0.0 3.2 0.00 0.00 0.00 67 1007.9
20260510031203 23 115 0.0 4.8 0.00 0.00 0.00 69 1008.0
20260510031048 24 128 0.0 4.8 0.00 0.00 0.00 68 1007.9
20260510030608 23 129 0.0 3.2 0.00 0.00 0.00 70 1007.9
20260510025411 23 132 0.0 3.2 0.00 0.00 0.00 71 1007.9
20260510024842 23 117 0.0 0.0 0.00 0.00 0.00 71 1007.9
20260510024339 23 58 0.0 0.0 0.00 0.00 0.00 71 1007.9
20260510024052 23 58 0.0 0.0 0.00 0.00 0.00 70 1007.8
20260510023333 23 58 0.0 0.0 0.00 0.00 0.00 70 1007.8
20260510022810 23 58 0.0 0.0 0.00 0.00 0.00 69 1007.7
20260510022240 23 58 0.0 0.0 0.00 0.00 0.00 68 1007.7
20260510021737 23 58 0.0 0.0 0.00 0.00 0.00 67 1007.6
20260510021211 23 58 0.0 0.0 0.00 0.00 0.00 67 1007.6
20260510020708 23 58 0.0 0.0 0.00 0.00 0.00 66 1007.6
20260510020207 24 58 0.0 0.0 0.00 0.00 0.00 66 1007.5
20260510015654 24 58 0.0 0.0 0.00 0.00 0.00 66 1007.4
20260510015156 24 58 0.0 0.0 0.00 0.00 0.00 65 1007.3
20260510014909 25 58 0.0 0.0 0.00 0.00 0.00 64 1007.3
20260510014543 25 58 0.0 0.0 0.00 0.00 0.00 62 1007.2
20260510014205 25 58 0.0 0.0 0.00 0.00 0.00 63 1007.3
20260510013536 25 58 0.0 0.0 0.00 0.00 0.00 59 1007.2
20260510012810 25 58 0.0 0.0 0.00 0.00 0.00 58 1007.1
20260510012026 26 58 0.0 0.0 0.00 0.00 0.00 57 1007.0
20260510011456 26 58 0.0 3.2 0.00 0.00 0.00 57 1006.9
20260510011217 26 58 0.0 3.2 0.00 0.00 0.00 56 1006.8
20260510010429 26 30 0.0 1.6 0.00 0.00 0.00 54 1006.8
20260510005900 27 30 0.0 1.6 0.00 0.00 0.00 53 1006.7
20260510005357 27 30 0.0 1.6 0.00 0.00 0.00 52 1006.7
20260510004828 27 47 0.0 1.6 0.00 0.00 0.00 51 1006.7
20260510004327 27 49 0.0 1.6 0.00 0.00 0.00 50 1006.7
20260510003758 28 49 0.0 1.6 0.00 0.00 0.00 50 1006.7
20260510003256 28 49 0.0 1.6 0.00 0.00 0.00 50 1006.7
20260510002752 28 69 0.0 4.8 0.00 0.00 0.00 49 1006.7
20260510002511 28 75 0.0 3.2 0.00 0.00 0.00 47 1006.7
20260510001722 29 49 0.0 6.4 0.00 0.00 0.00 46 1006.8
20260510001218 29 324 0.0 6.4 0.00 0.00 0.00 44 1006.8
20260510000654 30 69 0.0 6.4 0.00 0.00 0.00 43 1006.8
20260510000126 30 35 0.0 6.4 0.00 0.00 0.00 42 1006.7
20260509235623 30 66 0.0 4.8 0.00 0.00 0.00 41 1006.7
20260509235342 30 54 0.0 4.8 0.00 0.00 0.00 41 1006.7
20260509234619 30 62 0.0 4.8 0.00 0.00 0.00 42 1006.7
20260509234051 30 77 0.0 4.8 0.00 0.00 0.00 44 1006.7
20260509234035 30 15 0.0 4.8 0.00 0.00 0.00 42 1006.7
20260509233044 30 336 0.0 4.8 0.00 0.00 0.00 42 1006.7
20260509232542 30 336 0.0 4.8 0.00 0.00 0.00 43 1006.7
20260509232018 30 56 0.0 4.8 0.00 0.00 0.00 45 1006.7
20260509231448 31 68 0.0 4.8 0.00 0.00 0.00 43 1006.7
20260509230947 30 68 0.0 8.0 0.00 0.00 0.00 42 1006.8
20260509230422 30 338 1.6 8.0 0.00 0.00 0.00 40 1006.8
20260509225852 30 73 1.6 8.0 0.00 0.00 0.00 38 1006.7
20260509225351 31 329 1.6 8.0 0.00 0.00 0.00 38 1006.7
20260509224824 31 36 0.0 8.0 0.00 0.00 0.00 39 1006.7
20260509224256 31 140 0.0 8.0 0.00 0.00 0.00 41 1006.7
20260509224020 31 86 0.0 4.8 0.00 0.00 0.00 41 1006.7
20260509223250 31 252 1.6 8.0 0.00 0.00 0.00 42 1006.7
20260509222746 31 130 1.6 8.0 0.00 0.00 0.00 43 1006.7
20260509222222 31 300 0.0 4.8 0.00 0.00 0.00 45 1006.6
20260509221654 31 51 0.0 4.8 0.00 0.00 0.00 46 1006.6
20260509221410 31 314 0.0 4.8 0.00 0.00 0.00 45 1006.7
20260509220645 30 10 0.0 4.8 0.00 0.00 0.00 46 1006.7
20260509220118 30 339 1.6 9.7 0.00 0.00 0.00 47 1006.7
20260509215558 30 121 3.2 11.3 0.00 0.00 0.00 48 1006.7
20260509215058 30 349 1.6 11.3 0.00 0.00 0.00 45 1006.7
20260509214558 31 11 1.6 9.7 0.00 0.00 0.00 45 1006.8
20260509214053 31 6 0.0 6.4 0.00 0.00 0.00 48 1006.8
20260509213530 31 39 0.0 6.4 0.00 0.00 0.00 44 1006.9
20260509213000 31 9 1.6 6.4 0.00 0.00 0.00 46 1006.9
20260509212459 31 119 1.6 8.0 0.00 0.00 0.00 47 1007.1
20260509211942 31 78 1.6 8.0 0.00 0.00 0.00 47 1007.1
20260509211440 31 107 1.6 11.3 0.00 0.00 0.00 47 1007.1
20260509210940 31 82 1.6 11.3 0.00 0.00 0.00 45 1007.2
20260509210440 31 59 0.0 4.8 0.00 0.00 0.00 49 1007.3
20260509205910 31 338 1.6 9.7 0.00 0.00 0.00 48 1007.2
20260509205408 31 115 1.6 9.7 0.00 0.00 0.00 52 1007.4
20260509205104 30 155 0.0 6.4 0.00 0.00 0.00 54 1007.5
20260509204317 30 28 1.6 12.9 0.00 0.00 0.00 50 1007.6
20260509203748 30 15 3.2 12.9 0.00 0.00 0.00 47 1007.6
20260509203246 30 100 4.8 12.9 0.00 0.00 0.00 51 1007.7
20260509202733 30 330 3.2 12.9 0.00 0.00 0.00 48 1007.8
20260509202231 30 69 1.6 6.4 0.00 0.00 0.00 53 1007.9
20260509201734 30 146 1.6 6.4 0.00 0.00 0.00 53 1007.9
20260509201208 30 74 1.6 9.7 0.00 0.00 0.00 51 1008.0
20260509200705 30 1 1.6 9.7 0.00 0.00 0.00 51 1008.0
20260509200142 30 96 0.0 8.0 0.00 0.00 0.00 56 1008.0
20260509195614 30 18 1.6 8.0 0.00 0.00 0.00 52 1008.0
20260509195317 29 38 3.2 9.7 0.00 0.00 0.00 56 1008.0
20260509194739 30 26 1.6 9.7 0.00 0.00 0.00 54 1008.1
20260509194017 30 146 1.6 8.0 0.00 0.00 0.00 54 1008.2
20260509193517 30 176 1.6 8.0 0.00 0.00 0.00 57 1008.2
20260509193218 30 144 1.6 11.3 0.00 0.00 0.00 61 1008.2
20260509192428 29 357 1.6 11.3 0.00 0.00 0.00 59 1008.2
20260509191900 30 341 1.6 11.3 0.00 0.00 0.00 57 1008.3
20260509191338 30 53 1.6 11.3 0.00 0.00 0.00 58 1008.4
20260509190837 29 47 1.6 9.7 0.00 0.00 0.00 59 1008.4
20260509190316 29 77 1.6 9.7 0.00 0.00 0.00 62 1008.4
20260509185941 29 321 1.6 9.7 0.00 0.00 0.00 61 1008.5
20260509185441 28 131 3.2 20.9 0.00 0.00 0.00 61 1008.5
20260509184711 28 73 4.8 20.9 0.00 0.00 0.00 60 1008.4
20260509184212 28 347 3.2 16.1 0.00 0.00 0.00 59 1008.4
20260509183709 28 45 1.6 16.1 0.00 0.00 0.00 62 1008.4
20260509183435 28 72 3.2 12.9 0.00 0.00 0.00 62 1008.4
20260509182648 28 322 3.2 14.5 0.00 0.00 0.00 60 1008.4
20260509182149 28 83 3.2 14.5 0.00 0.00 0.00 64 1008.5
20260509181916 28 50 3.2 12.9 0.00 0.00 0.00 61 1008.6
20260509181128 28 323 3.2 12.9 0.00 0.00 0.00 60 1008.7
20260509180627 28 328 3.2 11.3 0.00 0.00 0.00 61 1008.7
20260509180338 28 63 1.6 9.7 0.00 0.00 0.00 62 1008.7
20260509175548 28 326 1.6 12.9 0.00 0.00 0.00 61 1008.8
20260509175026 28 348 1.6 12.9 0.00 0.00 0.00 62 1008.9
20260509174747 27 347 1.6 9.7 0.00 0.00 0.00 62 1009.0
20260509174024 27 336 1.6 9.7 0.00 0.00 0.00 62 1008.9
20260509173500 28 354 1.6 9.7 0.00 0.00 0.00 61 1009.0
20260509172941 28 355 1.6 11.3 0.00 0.00 0.00 64 1009.1
20260509172416 28 337 1.6 11.3 0.00 0.00 0.00 61 1009.1
20260509171850 28 249 1.6 8.0 0.00 0.00 0.00 60 1009.1
20260509171327 27 118 1.6 8.0 0.00 0.00 0.00 64 1009.2
20260509170758 27 27 1.6 8.0 0.00 0.00 0.00 64 1009.3
20260509170258 27 356 3.2 9.7 0.00 0.00 0.00 62 1009.3
20260509165755 27 359 1.6 9.7 0.00 0.00 0.00 62 1009.2
20260509165255 27 336 1.6 11.3 0.00 0.00 0.00 66 1009.1
20260509164755 27 354 1.6 11.3 0.00 0.00 0.00 66 1009.2
20260509164256 27 68 1.6 6.4 0.00 0.00 0.00 64 1009.2
20260509163943 27 8 1.6 9.7 0.00 0.00 0.00 64 1009.2
20260509163225 27 52 1.6 9.7 0.00 0.00 0.00 65 1009.3
20260509162659 26 5 1.6 6.4 0.00 0.00 0.00 66 1009.2
20260509162157 26 329 1.6 6.4 0.00 0.00 0.00 67 1009.2
20260509161633 26 22 3.2 11.3 0.00 0.00 0.00 68 1009.2
20260509161128 26 20 1.6 11.3 0.00 0.00 0.00 68 1009.1
20260509160626 26 334 3.2 11.3 0.00 0.00 0.00 68 1009.2
20260509160349 25 13 4.8 17.7 0.00 0.00 0.00 69 1009.2
20260509155623 25 326 3.2 17.7 0.00 0.00 0.00 69 1009.2
20260509155118 25 9 3.2 11.3 0.00 0.00 0.00 70 1009.1